Regional Weather Roundup
Issued by NWS

Home | Current Version | Previous Version | Graphics & Text | Print | Product List | Glossary On
Versions: 1 2 3 4 5 6 7 8 9 10 11 12 13 14 15 16 17 18 19 20 21 22 23 24 25 26 27 28 29 30 31 32 33 34 35 36 37 38 39 40 41 42 43 44 45 46 47 48 49 50
000
ASUS43 KBIS 291002
RWRND

NORTH DAKOTA REGIONAL WEATHER ROUNDUP
NATIONAL WEATHER SERVICE BISMARCK ND
500 AM CDT SAT APR 29 2017

NOTE: "FAIR" INDICATES FEW OR NO CLOUDS BELOW 12,000 FEET WITH NO
SIGNIFICANT WEATHER AND/OR OBSTRUCTIONS TO VISIBILITY.


NDZ001>003-009>011-017-291100-
NORTHWEST NORTH DAKOTA

CITY           SKY/WX    TMP DP  RH WIND       PRES   REMARKS
WILLISTON      FAIR      36  26  67 S3        30.17S
MINOT          FAIR      37  25  61 SW8       30.19R
MINOT AFB      CLOUDY    39  23  53 SW7       30.18R
$$

NDZ018>021-031>035-040>046-291100-
SOUTHWEST NORTH DAKOTA

CITY           SKY/WX    TMP DP  RH WIND       PRES   REMARKS
BISMARCK       FAIR      30  22  72 CALM      30.24R
DICKINSON      FAIR      29  19  66 S5        30.18S
GARRISON         N/A     29  24  82 CALM      30.20S
HETTINGER ARPT CLOUDY    28  22  78 NW3       30.23R
$$

NDZ004>008-012>016-024-026-027-054-291100-
NORTHEAST NORTH DAKOTA

CITY           SKY/WX    TMP DP  RH WIND       PRES   REMARKS
GRAND FORKS    CLEAR     31  25  78 CALM      30.25R
GRND FRKS AFB  CLEAR     28  25  88 NW3       30.25R
DEVILS LAKE    FAIR      29  27  92 CALM      30.24S
$$

NDZ022-023-025-028>030-036>039-047>053-291100-
SOUTHEAST NORTH DAKOTA

CITY           SKY/WX    TMP DP  RH WIND       PRES   REMARKS
FARGO          CLEAR     26  23  88 CALM      30.24S
JAMESTOWN      FAIR      30  27  88 CALM      30.23R
$$





USA.gov is the U.S. government's official web portal to all federal, state and local government web resources and services.